Olive Branch, MS

3:10 PM CDT on October 23, 2017 (GMT -0500)
Olive Branch

Weather History for KOLV - November, 2012

Change the Weather History Date:

Monday, November 5, 2012

  Actual Average (KMEM) Record (KMEM)
Temperature  
Mean Temperature 44 °F -  
Max Temperature 51 °F 61 °F 82 °F (2005)
Min Temperature 37 °F 43 °F 24 °F (1991)
Degree Days  
Heating Degree Days 21    
Moisture  
Dew Point 41 °F    
Average Humidity 92    
Maximum Humidity 100    
Minimum Humidity 58    
Precipitation  
Precipitation 0.00 in - - ()
Sea Level Pressure  
Sea Level Pressure 30.07 in    
Wind  
Wind Speed 2 mph (ENE)    
Max Wind Speed 10 mph    
Max Gust Speed -    
Visibility 10 miles    
Events Rain    
Averages and records for this station are not official NWS values.
T = Trace of Precipitation, MM = Missing Value Source: NWS Daily Summary

Daily Weather History Graph

Daily Weather History Graph

Search for Another Location

Airport or City:

Trip Planner

Search our weather history database for the weather conditions in past years. The results will help you decide how hot, cold, wet, or windy it might be!

Date:

Astronomy

Nov. 05, 2012 Rise Set
Actual Time 6:24 AM CST 5:00 PM CST
Civil Twilight 5:57 AM CST 5:27 PM CST
Nautical Twilight 5:27 AM CST 5:57 PM CST
Astronomical Twilight 4:58 AM CST 6:26 PM CST
Moon 10:37 PM CST (11/5) 11:43 AM CST (11/5)
Length of Visible Light 11h 29m
Length of Day
10h 36m
Waning Gibbous, 62% of the Moon is Illuminated
Nov 5
Waning Gibbous
Nov 6
Last Quarter
Nov 13
New
Nov 20
First Quarter
Nov 28
Full

Hourly Weather History & Observations

Time (CST) Temp. Windchill Dew Point Humidity Pressure Visibility Wind Dir Wind Speed Gust Speed Precip Events Conditions
12:15 AM 41.0 °F - 37.4 °F 87% 30.14 in 10.0 mi Calm Calm - 0.00 in   Clear
12:35 AM 41.0 °F - 37.4 °F 87% 30.13 in 9.0 mi Calm Calm - 0.00 in   Clear
12:55 AM 41.0 °F - 37.4 °F 87% 30.13 in 10.0 mi Calm Calm - 0.00 in   Clear
1:15 AM 39.2 °F - 37.4 °F 93% 30.13 in 10.0 mi Calm Calm - 0.00 in   Clear
1:35 AM 39.2 °F - 37.4 °F 93% 30.13 in 10.0 mi Calm Calm - 0.00 in   Clear
1:55 AM 39.2 °F - 37.4 °F 93% 30.13 in 10.0 mi Calm Calm - 0.00 in   Clear
2:15 AM 39.2 °F - 37.4 °F 93% 30.13 in 9.0 mi Calm Calm - 0.00 in   Clear
2:35 AM 37.4 °F - 37.4 °F 100% 30.13 in 10.0 mi Calm Calm - 0.00 in   Clear
2:55 AM 39.2 °F - 39.2 °F 100% 30.13 in 8.0 mi Calm Calm - 0.00 in   Clear
3:15 AM 39.2 °F - 39.2 °F 100% 30.12 in 8.0 mi Calm Calm - 0.00 in   Clear
3:35 AM 37.4 °F - 37.4 °F 100% 30.12 in 10.0 mi Calm Calm - 0.00 in   Clear
3:55 AM 39.2 °F - 39.2 °F 100% 30.12 in 10.0 mi Calm Calm - 0.00 in   Clear
4:15 AM 39.2 °F - 39.2 °F 100% 30.13 in 10.0 mi Calm Calm - 0.00 in   Clear
4:35 AM 39.2 °F 35.0 °F 39.2 °F 100% 30.12 in 9.0 mi NE 5.8 mph - 0.00 in   Clear
4:55 AM 39.2 °F 37.0 °F 37.4 °F 93% 30.12 in 9.0 mi ENE 3.5 mph - 0.00 in   Clear
5:15 AM 39.2 °F 37.0 °F 39.2 °F 100% 30.11 in 8.0 mi ENE 3.5 mph - 0.00 in   Clear
5:35 AM 39.2 °F 35.9 °F 37.4 °F 93% 30.11 in 10.0 mi ESE 4.6 mph - N/A   Partly Cloudy
6:50 AM 39.2 °F 35.9 °F 37.4 °F 93% 30.09 in 10.0 mi ESE 4.6 mph - N/A   Mostly Cloudy
7:50 AM 42.8 °F 38.0 °F 39.2 °F 87% 30.10 in 10.0 mi SE 8.1 mph - N/A   Overcast
8:50 AM 46.4 °F 42.4 °F 37.4 °F 71% 30.08 in 10.0 mi ESE 8.1 mph - N/A   Overcast
9:50 AM 48.2 °F - 39.2 °F 71% 30.09 in 10.0 mi SSE 9.2 mph - N/A   Mostly Cloudy
11:03 AM 50.0 °F - 37.4 °F 62% 30.08 in 10.0 mi SE 6.9 mph - N/A   Overcast
11:50 AM 51.8 °F - 37.4 °F 58% 30.05 in 10.0 mi SE 8.1 mph - N/A   Mostly Cloudy
12:50 PM 51.8 °F - 37.4 °F 58% 30.03 in 10.0 mi East 4.6 mph - N/A   Mostly Cloudy
1:55 PM 51.8 °F - 39.2 °F 62% 30.04 in 10.0 mi WNW 4.6 mph - N/A   Mostly Cloudy
2:55 PM 46.4 °F 43.5 °F 44.6 °F 93% 29.99 in 10.0 mi SE 5.8 mph - N/A Rain Light Rain
3:45 PM 46.4 °F 41.5 °F 46.4 °F 100% 29.97 in 10.0 mi ESE 10.4 mph - N/A   Overcast
4:45 PM 46.4 °F - 44.6 °F 93% 30.00 in 10.0 mi Calm Calm - N/A   Mostly Cloudy
5:50 PM 46.4 °F - 46.4 °F 100% 30.01 in 10.0 mi Calm Calm - N/A   Mostly Cloudy
6:55 PM 44.6 °F - 44.6 °F 100% 30.02 in 10.0 mi Calm Calm - N/A   Overcast
7:50 PM 44.6 °F 42.2 °F 44.6 °F 100% 30.03 in 8.0 mi NNE 4.6 mph - N/A   Overcast
7:55 PM 44.6 °F 41.4 °F 44.6 °F 100% 30.03 in 7.0 mi NNE 5.8 mph - N/A   Overcast
8:15 PM 44.6 °F - 44.6 °F 100% 30.03 in 8.0 mi Calm Calm - 0.00 in   Overcast
8:35 PM 44.6 °F 42.2 °F 44.6 °F 100% 30.03 in 10.0 mi NE 4.6 mph - 0.00 in   Overcast
8:55 PM 44.6 °F 41.4 °F 44.6 °F 100% 30.04 in 9.0 mi NNE 5.8 mph - 0.00 in   Overcast
9:15 PM 44.6 °F 42.2 °F 44.6 °F 100% 30.04 in 8.0 mi NE 4.6 mph - 0.00 in   Overcast
9:35 PM 44.6 °F - 44.6 °F 100% 30.04 in 10.0 mi Calm Calm - 0.00 in   Overcast
9:55 PM 44.6 °F - 44.6 °F 100% 30.03 in 10.0 mi Calm Calm - N/A   Overcast
10:15 PM 44.6 °F 41.4 °F 44.6 °F 100% 30.03 in 10.0 mi NE 5.8 mph - 0.00 in   Overcast
10:35 PM 44.6 °F 40.7 °F 44.6 °F 100% 30.03 in 9.0 mi NE 6.9 mph - 0.00 in   Overcast
10:55 PM 44.6 °F 42.2 °F 44.6 °F 100% 30.02 in 10.0 mi NE 4.6 mph - 0.00 in   Overcast
11:15 PM 44.6 °F 41.4 °F 44.6 °F 100% 30.02 in 10.0 mi NNE 5.8 mph - 0.00 in   Overcast
11:35 PM 44.6 °F 41.4 °F 44.6 °F 100% 30.02 in 9.0 mi NE 5.8 mph - 0.00 in   Overcast
11:55 PM 44.6 °F 42.2 °F 44.6 °F 100% 30.02 in 10.0 mi NE 4.6 mph - 0.00 in   Overcast